Location: Chandrammap?lem
(16.9200°N, 81.0051°E)
Time: 06:55:08
(UTC+00:00)

CZ-3A R/B - Pass Details

Date: 05 August 2024
Orbit: 420 x 34799 km, 24.7° (Epoch: 06 September)

Event Time Altitude Azimuth Distance (km) Brightness Sun altitude
Rises 04:18:35 0° 222° (SW) 7,229 7.2 55.7°
Reaches altitude 10° 04:21:46 10° 217° (SW) 7,201 7.3 56.5°
Maximum altitude 08:35:15 89° 22° (NNE) 34,482 12.2 62.9°
Enters shadow 13:58:23 12° 99° (E) 5,851 6.4 -12.5°
